RH
75 73 70 71 71 69 70 69 70 68 68 68 66 66 67 69 71 70 69 64 57 57 57 57 56 55 54 54 56 54 58 61 61 62 56 53 53 53 52 52 55 56 55 54 54 53 53 54 55 56 57 58 57 56 53 52 51 51 50 48 48 48 48 48 49 48 47 47 46 46 45 44 44 46 47 48 48 47 47 46 45 50 50 46 46
74 72 73 73 70 68 70 69 70 69 70 69 67 68 69 71 70 69 68 63 56 56 57 57 54 53 53 52 53 53 52 53 59 65 63 56 51 50 50 51 52 51 51 51 51 52 54 54 53 52 53 54 55 56 56 55 53 52 51 49 49 49 50 50 51 51 51 51 50 50 49 47 46 46 46 47 48 49 50 48 49 57 54 49 48
73 72 74 74 70 68 70 70 70 69 71 71 68 69 71 72 70 68 66 63 60 58 57 57 57 55 53 51 51 51 49 47 49 56 59 55 51 50 49 50 49 47 48 47 49 50 51 51 50 49 48 49 51 54 55 55 53 53 52 51 50 50 51 51 53 53 54 54 53 51 51 51 49 48 47 47 47 47 50 51 53 58 56 52 51
75 72 74 72 70 68 70 70 71 71 73 73 71 70 71 73 70 67 66 65 63 60 58 58 57 54 50 48 49 48 45 41 36 38 43 46 48 46 44 47 45 43 44 45 47 47 47 46 46 45 45 45 47 49 50 50 50 50 50 50 49 48 49 50 51 53 54 54 53 53 54 54 53 51 50 48 47 46 48 50 53 57 55 53 53
77 72 73 71 72 70 69 70 72 74 74 74 73 73 73 73 72 69 69 67 64 62 60 59 56 51 47 46 47 47 42 36 30 30 33 38 41 40 39 39 39 39 41 44 45 44 44 45 45 43 42 42 43 44 43 44 45 44 45 45 45 45 46 48 50 51 53 53 53 55 57 57 56 54 53 52 50 50 50 51 53 55 54 53 54
80 73 73 73 74 72 71 71 73 75 74 74 74 75 74 74 72 70 71 68 64 64 61 60 55 49 48 48 46 43 37 31 30 31 32 33 35 36 35 34 34 35 36 38 38 38 39 40 41 39 38 38 39 39 38 39 39 38 39 39 40 42 44 45 46 48 49 49 51 54 55 54 56 55 53 52 51 52 52 52 54 54 54 54 55
82 76 75 75 74 73 73 72 74 75 74 74 73 75 75 72 70 68 70 67 64 63 60 56 50 46 47 47 42 37 33 30 31 32 32 33 33 34 34 33 33 32 32 33 32 33 32 33 34 33 34 34 35 35 35 36 36 36 35 35 36 37 40 40 41 43 44 46 49 51 52 51 52 52 47 46 47 49 51 52 53 53 53 54 55
80 78 78 75 73 73 73 73 75 77 77 76 76 76 74 71 69 67 66 64 62 59 54 49 44 42 44 41 37 33 29 30 31 33 33 33 32 32 32 31 31 31 31 31 31 31 31 32 32 32 32 32 33 34 35 36 36 37 36 38 38 38 40 41 42 42 42 45 48 49 51 49 50 50 43 39 42 43 46 49 50 51 51 52 55
77 79 79 73 73 74 73 74 76 78 77 76 77 76 72 70 68 65 64 61 58 54 46 40 38 37 38 36 34 30 29 32 35 37 36 34 32 31 31 31 31 31 31 31 31 32 32 33 34 35 35 35 35 36 38 38 38 38 39 42 44 43 43 44 43 44 46 48 48 47 47 47 52 52 41 34 35 37 39 41 44 46 48 49 51
75 80 82 74 74 75 73 77 77 77 76 75 75 72 70 70 68 64 62 56 51 49 43 38 35 32 31 32 33 33 35 40 42 42 39 36 34 34 34 34 34 34 35 34 34 34 34 35 35 37 37 38 38 39 39 40 41 41 43 44 47 47 45 45 45 48 51 49 45 43 40 40 49 50 37 29 30 32 34 36 40 44 45 46 47
73 78 84 76 73 76 76 77 77 77 75 73 73 70 69 69 68 63 56 50 48 49 45 39 36 31 30 32 35 38 41 46 47 45 41 37 36 36 35 36 37 38 39 38 37 38 38 37 36 36 36 37 39 41 41 42 43 44 45 45 46 47 46 46 48 52 49 46 44 42 38 35 41 41 30 24 26 29 31 33 36 38 40 41 43
73 74 82 79 75 77 78 77 76 76 73 73 72 69 69 67 65 60 52 49 51 53 49 45 42 36 33 34 38 41 43 47 46 42 38 37 37 37 36 37 38 38 39 38 38 38 38 38 37 36 36 36 37 40 42 44 45 46 47 48 50 49 49 46 52 55 50 49 46 44 45 40 39 34 27 25 24 26 28 31 32 34 36 38 40
72 73 80 81 78 79 78 76 75 75 71 72 72 69 66 63 60 56 52 51 53 55 52 50 49 42 34 34 38 41 41 43 42 39 38 37 37 37 38 38 37 38 38 38 37 37 37 37 37 38 39 39 39 40 43 46 47 49 50 52 54 53 52 49 54 57 53 55 47 43 47 44 41 32 28 29 25 26 27 28 31 33 36 39 39
72 73 78 80 80 80 80 78 76 75 72 71 72 71 65 60 56 52 53 53 52 53 52 52 51 44 37 35 35 38 40 40 39 38 38 37 38 38 38 38 38 38 38 38 37 37 37 38 40 40 42 43 44 46 46 47 48 50 52 54 55 55 55 52 55 56 54 54 48 45 45 41 39 33 31 31 28 28 28 29 34 35 38 42 40
73 74 76 78 78 80 82 82 79 77 74 72 72 69 61 55 52 49 51 52 51 51 52 53 50 44 39 35 33 35 38 39 38 37 37 38 39 39 39 39 39 39 38 38 37 38 39 40 42 42 44 46 49 50 49 50 50 51 53 55 57 57 57 58 60 58 56 56 52 47 45 42 36 31 32 31 30 30 28 29 32 34 35 38 38
73 74 76 76 76 81 83 83 84 80 77 74 71 64 54 50 48 44 47 51 50 51 53 52 48 42 38 34 32 34 36 37 38 37 38 39 40 41 40 39 38 38 38 39 38 39 40 41 42 43 46 49 50 50 50 52 53 54 56 57 58 59 58 61 63 62 62 62 58 51 48 44 35 31 32 31 30 30 29 27 27 28 29 30 32
71 73 77 77 77 81 82 81 82 80 75 74 68 59 51 46 44 40 44 49 50 50 51 48 43 38 34 31 30 33 34 34 36 37 38 40 42 42 40 37 35 35 36 36 37 37 39 40 41 43 46 48 49 49 50 52 54 56 57 58 59 60 57 59 64 65 65 62 57 54 50 47 39 35 35 34 33 31 30 27 26 25 25 25 26
71 72 76 77 76 78 80 80 80 77 73 73 67 56 50 44 41 40 43 47 48 48 45 41 37 34 31 30 30 32 31 31 33 35 37 39 40 40 36 34 33 32 33 33 33 34 35 37 39 41 44 46 47 48 50 52 53 55 57 58 59 60 58 58 63 66 65 59 56 55 52 48 41 39 39 38 37 33 31 30 28 26 24 24 25
72 72 73 75 75 76 79 80 78 75 73 73 68 58 49 43 41 40 42 45 45 40 35 33 32 33 34 34 36 35 32 31 31 31 34 36 38 38 34 31 32 31 31 31 31 32 33 34 36 38 41 42 44 46 48 51 53 54 56 58 58 59 58 58 63 65 64 61 59 57 52 47 42 41 41 41 40 37 34 32 32 30 26 25 25
71 69 69 69 71 74 76 77 75 73 72 70 67 61 50 44 43 41 43 43 38 31 28 30 32 36 38 38 41 39 36 33 30 29 32 35 36 36 32 31 31 31 30 30 31 31 32 32 33 35 38 40 42 45 47 50 52 55 57 60 60 61 62 62 66 65 65 63 58 57 53 47 45 44 42 42 41 39 37 36 35 33 32 30 29
67 65 66 66 67 69 70 71 70 69 68 66 65 62 54 49 45 42 43 40 35 30 30 34 36 38 38 40 43 41 37 35 31 30 32 32 33 32 30 31 30 30 29 30 31 32 32 31 32 35 40 42 43 46 47 49 52 55 59 62 65 66 66 66 67 66 64 62 58 58 55 49 49 47 45 45 43 42 40 40 39 37 36 35 35
66 64 63 63 62 63 64 65 64 64 65 64 63 62 58 53 49 47 46 43 41 39 37 39 41 39 38 41 46 46 41 37 33 32 33 32 31 30 30 30 29 29 28 29 30 31 33 32 34 37 42 44 44 48 51 52 54 57 60 64 66 67 66 65 67 65 62 62 64 62 56 52 51 50 49 48 47 45 44 44 43 42 42 41 39
64 63 61 60 60 59 59 61 62 62 64 64 62 62 60 58 53 50 49 48 48 48 44 42 44 41 40 43 48 50 44 37 33 30 31 31 30 30 29 29 28 28 28 28 29 31 33 34 35 37 41 44 46 51 54 56 59 60 62 65 67 67 68 68 68 67 64 64 65 61 55 53 52 52 52 52 52 50 49 48 46 46 45 45 45
60 62 60 60 60 59 58 60 61 61 64 63 63 63 60 59 55 52 54 54 53 53 50 45 45 44 42 45 48 49 42 36 31 27 29 31 32 31 29 29 29 29 28 28 30 32 35 36 36 38 42 46 48 51 54 57 61 62 65 69 69 68 70 71 71 69 66 64 64 62 58 56 55 53 54 55 55 53 52 50 47 47 47 48 50
60 61 60 59 59 60 59 59 61 63 64 62 65 65 61 61 58 54 55 58 57 55 52 47 45 45 44 45 48 46 39 34 30 31 35 34 34 34 36 35 31 31 28 29 34 35 38 41 41 43 46 47 48 51 53 57 59 61 67 72 71 70 71 72 72 71 69 68 68 68 66 64 62 60 59 59 57 57 58 54 50 50 51 54 55
60 59 59 59 58 58 59 59 60 62 63 64 66 65 63 64 60 57 55 57 59 56 55 53 46 45 46 44 47 45 38 35 31 34 38 34 34 39 43 42 35 34 32 35 39 38 40 43 44 45 46 48 49 51 53 55 58 60 65 71 72 71 70 70 70 71 72 72 70 70 70 68 66 66 64 63 62 61 64 61 57 58 60 61 62
58 58 58 59 58 58 59 59 60 61 62 64 65 65 66 63 59 58 56 58 61 56 57 57 48 45 46 45 47 47 42 40 36 32 34 36 40 43 46 43 40 40 37 39 42 40 42 44 45 46 47 50 51 52 54 56 58 59 62 67 71 70 68 68 69 69 70 70 70 69 68 67 65 65 63 64 65 62 66 67 64 65 66 66 69
57 57 58 58 58 60 58 57 59 59 60 61 62 64 64 60 57 58 59 60 61 58 58 55 48 46 47 45 47 50 47 44 41 35 35 40 43 44 45 44 45 44 41 42 44 44 44 44 46 47 48 51 51 52 55 57 58 59 60 63 67 67 66 67 68 69 68 69 72 71 68 67 65 65 63 65 68 65 66 68 67 68 69 70 73
57 55 56 56 56 57 56 57 57 56 57 58 60 63 61 60 58 58 60 60 60 61 60 55 49 46 47 45 45 51 51 48 45 39 40 43 44 45 47 48 50 48 44 43 44 45 45 44 47 48 49 50 51 52 54 57 60 62 61 62 63 63 64 67 69 70 71 73 75 73 69 68 67 66 64 66 69 66 65 69 71 72 73 72 72
58 56 56 56 55 54 53 55 57 55 56 56 59 61 59 59 59 59 60 58 59 62 60 55 51 48 48 47 46 49 51 51 48 41 40 41 42 46 47 50 51 48 46 46 45 46 44 46 48 48 50 52 52 52 54 56 59 61 60 59 61 61 64 69 70 71 73 74 74 73 70 68 67 65 64 65 67 67 68 70 71 74 75 71 68
59 58 55 56 57 56 56 56 56 55 57 58 59 60 60 60 59 58 60 58 58 58 56 55 54 51 48 47 49 49 49 52 50 44 41 40 42 45 45 48 51 50 49 47 46 45 45 47 49 50 51 54 54 52 53 56 58 58 57 58 59 61 65 69 71 71 72 72 72 73 71 68 66 66 65 64 66 70 71 71 74 76 73 69 68
59 58 56 57 57 58 59 58 57 54 56 60 61 63 63 62 60 58 59 61 59 57 54 54 55 52 47 45 49 50 48 50 50 46 43 41 42 43 44 48 53 54 51 48 48 46 46 48 49 51 52 54 55 53 54 57 58 57 56 58 59 62 67 69 70 70 70 71 70 70 69 68 69 68 68 67 67 72 70 69 74 77 76 75 72
59 58 57 58 59 60 61 61 60 55 54 57 60 63 63 62 61 60 60 61 60 60 57 54 54 54 50 46 47 49 48 49 48 45 42 42 44 45 45 48 53 56 52 49 47 45 46 49 51 52 53 54 56 55 54 57 58 56 55 58 59 64 68 69 70 69 67 68 67 68 69 70 72 71 71 71 71 72 68 66 69 74 81 78 69
60 61 60 60 61 63 64 63 62 59 56 58 57 59 61 60 59 60 61 61 60 61 62 58 56 56 56 52 50 50 48 48 47 44 42 44 47 48 46 48 53 55 53 49 46 47 48 50 52 53 53 55 56 55 55 56 56 53 55 58 61 66 67 68 68 65 64 66 66 68 69 71 74 75 74 74 73 70 64 63 66 74 78 71 65
65 66 64 63 66 64 64 64 62 61 61 61 59 59 60 60 59 58 59 59 59 59 61 62 60 60 60 59 56 53 49 48 47 45 44 46 49 50 48 49 53 53 53 49 46 48 50 50 52 54 55 56 56 55 54 55 55 53 55 60 63 65 66 66 66 64 67 68 66 68 69 70 73 75 74 73 68 63 60 60 64 70 72 68 66
73 74 70 68 70 67 64 65 63 63 64 65 64 63 61 60 60 59 57 56 56 57 60 62 64 64 63 63 60 55 53 51 49 47 45 47 50 51 49 49 50 51 54 49 46 48 50 51 52 54 57 58 55 52 53 54 55 55 57 60 63 63 64 63 63 66 69 67 64 67 67 68 72 73 71 66 59 56 57 56 58 63 65 67 67
77 79 77 72 73 70 65 66 65 63 65 67 67 66 63 61 60 58 57 55 54 56 60 62 64 66 67 67 64 59 55 53 53 51 47 48 52 52 51 51 49 50 53 51 49 50 50 52 54 56 58 58 55 51 53 55 54 56 58 61 62 63 62 61 63 66 64 62 63 64 65 67 70 67 63 60 54 52 54 52 55 59 61 68 69
77 79 78 74 74 73 68 67 66 64 64 66 67 68 67 65 62 60 58 57 57 57 60 62 64 67 70 69 67 63 59 56 56 55 51 50 53 52 51 51 50 51 54 54 52 50 50 54 57 59 57 54 52 51 53 53 53 56 58 60 62 63 63 61 65 66 60 61 63 63 65 67 67 62 59 58 54 51 55 56 57 58 58 68 71
79 79 78 75 75 75 72 68 64 63 63 65 67 69 69 70 68 65 62 62 61 61 61 62 64 67 71 71 68 66 63 59 57 57 55 54 55 54 50 49 50 53 55 55 51 49 51 54 56 59 55 51 51 54 54 51 52 54 56 59 61 63 64 61 67 67 60 63 65 64 66 66 65 62 61 61 57 55 57 59 58 57 57 63 66
81 81 80 77 76 75 74 71 66 64 64 64 66 67 69 71 71 71 70 68 66 65 62 61 61 65 67 69 68 68 65 62 59 57 56 56 57 57 51 48 50 53 54 52 48 48 51 53 54 54 51 50 52 54 54 52 52 53 56 59 60 62 61 60 67 67 62 64 66 66 66 64 64 64 64 65 63 59 58 59 58 59 58 61 61
82 83 83 81 78 77 77 73 67 65 66 66 66 67 69 70 72 74 75 74 72 69 68 64 61 63 63 63 66 68 67 63 59 57 57 55 56 56 51 48 50 53 54 50 46 47 48 50 53 52 48 50 52 54 54 51 50 54 58 59 60 61 59 61 67 66 64 65 66 67 66 65 65 65 66 67 66 62 60 58 57 59 58 60 58
84 84 85 85 83 83 83 76 70 68 67 67 68 69 71 72 73 75 76 77 76 73 73 70 66 64 61 59 63 66 66 64 60 57 58 56 55 56 54 50 50 50 50 45 42 43 44 49 53 51 49 51 53 54 53 49 50 56 57 58 61 61 59 63 66 66 68 67 66 70 69 68 68 68 68 68 66 64 62 58 58 59 57 59 59
87 85 84 85 87 89 86 78 76 73 68 68 69 69 71 73 74 76 76 79 79 77 77 75 72 69 63 60 62 64 64 63 60 57 57 57 56 57 57 55 51 48 46 43 42 44 47 52 52 50 50 52 53 55 54 51 52 57 57 59 60 58 59 64 65 69 72 70 70 72 71 71 72 72 72 69 66 64 62 60 62 63 59 60 63
88 85 82 83 85 87 85 78 75 74 71 70 70 69 70 72 73 75 75 76 78 78 77 76 74 72 69 65 63 62 61 60 60 57 56 56 56 56 58 59 53 47 46 44 45 49 52 53 51 50 52 53 54 54 54 53 54 57 56 58 59 55 57 61 65 70 70 69 73 71 69 71 71 73 73 69 68 67 63 62 64 66 63 61 63
85 85 86 86 83 83 83 78 75 74 74 71 68 69 71 71 72 73 74 75 76 76 75 75 74 72 71 70 66 61 59 58 58 57 57 56 55 56 57 56 53 48 47 47 48 52 54 53 51 51 52 54 54 52 52 55 56 57 56 58 59 56 55 57 63 69 69 71 76 72 69 70 69 71 71 69 70 68 64 64 64 63 63 63 61
80 81 86 87 83 81 81 79 76 75 75 72 68 67 69 71 72 72 74 74 75 75 74 73 73 73 72 72 70 66 59 57 58 57 58 56 54 56 57 53 52 50 47 48 52 54 53 51 50 51 52 54 53 50 53 56 57 57 55 56 58 58 58 59 63 66 67 70 74 72 70 70 68 69 69 69 71 70 66 64 62 60 60 62 60
78 79 83 85 84 82 81 80 77 74 76 74 69 66 67 70 72 71 74 75 75 76 76 74 73 74 73 72 73 72 65 60 60 58 58 58 55 56 56 52 52 52 47 47 51 53 52 50 49 51 52 51 49 49 53 56 57 57 56 56 59 59 60 62 64 64 64 66 66 67 70 69 66 65 66 68 69 70 66 63 61 61 61 62 60
75 77 81 83 83 83 81 80 77 73 74 75 71 65 64 66 67 69 72 75 76 77 78 76 74 73 73 72 72 73 71 65 63 61 58 58 56 55 54 51 49 50 48 48 49 50 50 50 48 47 46 46 46 48 51 53 55 57 54 54 57 59 61 63 62 61 63 65 65 65 68 68 64 62 64 65 65 66 67 65 64 63 62 60 59
69 72 78 80 80 82 81 81 80 75 74 76 74 69 65 65 64 66 69 73 75 76 77 77 76 75 73 73 72 72 73 69 65 61 59 58 57 54 51 48 46 46 46 47 48 48 49 49 45 43 44 47 50 49 49 51 54 55 55 54 54 57 61 62 61 60 63 67 68 67 67 68 67 63 61 63 63 62 65 68 69 68 65 62 60
69 68 73 76 76 79 81 81 80 79 78 78 75 69 67 66 64 65 67 71 73 74 75 76 76 75 73 73 72 70 72 71 68 63 60 58 56 53 49 46 44 43 44 46 47 47 48 47 42 41 44 46 49 50 50 53 53 53 54 53 53 56 60 60 58 60 62 66 69 67 66 67 68 63 59 61 63 63 64 67 70 71 69 65 62
71 65 67 72 72 73 76 78 79 80 78 75 70 66 66 67 65 63 64 69 73 73 74 75 74 75 74 74 73 71 71 72 71 68 63 59 55 51 49 47 46 44 43 43 45 45 45 45 42 42 44 42 43 49 51 52 53 53 53 54 55 57 60 60 58 59 61 65 69 69 65 66 68 63 60 61 64 64 65 65 66 68 67 66 65